GFSSW_500_rhum_159.txt.gz
RH
3 3 3 3 3 3 2 2 2 2 3 5 6 6 6 5 5 4 4 4 4 3 3 3 3 4 10 46 64 97 64 73 94 97 96 83 33 23 16 19 22 36 28 25 21
3 3 3 3 3 3 3 3 3 3 3 3 4 6 7 7 7 6 5 4 4 4 3 3 3 4 17 71 96 80 61 86 73 96 92 92 27 17 24 26 34 36 44 37 34
4 4 4 4 4 3 3 3 3 3 3 4 4 4 5 6 7 7 7 6 4 4 3 3 6 28 73 48 90 88 66 68 75 92 93 61 28 33 56 34 34 25 46 48 42
6 6 6 5 5 5 5 4 4 4 4 4 4 4 5 5 6 7 7 7 6 4 4 3 14 29 63 92 89 95 71 76 78 71 71 56 48 100 87 30 34 33 36 49 53
7 7 7 7 7 7 7 7 7 6 5 5 5 5 5 6 7 7 7 7 6 5 4 4 10 40 57 92 89 79 74 95 94 99 96 79 61 77 33 33 36 48 54 61 66
8 8 8 7 7 7 8 9 9 10 8 6 7 8 8 8 7 7 7 6 7 6 5 5 8 33 36 80 98 70 62 93 90 98 98 97 96 48 25 38 39 51 65 74 66
7 7 8 8 7 7 8 10 10 10 10 6 8 9 8 6 7 7 8 7 6 7 7 5 9 69 35 92 92 84 70 95 94 97 83 82 98 76 42 32 39 41 51 64 57
6 6 6 7 7 8 10 12 12 10 11 7 8 8 7 6 6 7 7 8 6 7 7 6 10 39 27 64 89 91 87 70 63 87 87 93 96 96 70 40 27 48 56 65 56
8 8 10 10 10 9 11 12 12 12 11 9 9 8 8 7 6 6 7 7 7 6 8 8 21 7 12 33 83 59 82 70 47 78 74 85 90 85 52 31 38 82 68 59 58
21 24 25 27 23 13 12 14 13 13 13 11 9 9 10 9 9 6 5 7 7 6 8 10 11 8 37 95 71 78 58 48 68 42 45 92 96 97 94 57 40 58 56 58 67
28 27 27 27 26 24 21 23 22 17 14 13 11 11 8 9 10 8 5 6 6 7 8 10 22 10 45 81 72 41 56 38 57 94 40 88 94 95 72 58 83 61 66 43 67
31 30 29 27 27 28 29 31 32 31 23 16 13 12 11 7 12 11 8 5 6 7 7 12 45 42 48 98 78 42 57 69 43 44 43 96 98 84 37 24 38 65 87 67 79
34 34 32 31 31 28 30 32 33 31 32 24 17 14 13 9 10 12 10 5 6 5 7 16 69 96 81 65 65 64 87 93 76 70 44 81 88 94 61 86 75 59 62 66 70
36 34 30 31 34 34 31 31 34 34 29 24 20 18 16 11 10 12 12 7 5 5 8 29 93 96 98 82 59 64 82 99 88 57 76 89 75 84 89 94 69 57 60 80 80
32 29 30 30 32 37 35 32 34 36 31 34 31 26 22 15 12 10 12 11 8 6 12 45 78 91 79 54 81 93 98 81 70 72 75 97 91 72 73 64 70 55 41 72 57
30 30 28 29 30 33 37 38 39 38 41 33 39 41 29 24 18 11 10 13 11 8 7 18 52 66 60 21 75 96 75 78 96 94 88 99 99 82 63 52 75 56 54 37 23
25 25 26 28 31 34 34 36 40 43 44 72 73 41 47 34 22 17 11 11 13 11 9 11 15 28 50 44 71 54 70 91 96 97 83 98 89 63 67 43 38 37 28 29 56
28 30 30 31 34 37 36 37 43 46 65 92 86 83 60 47 33 24 15 13 14 15 14 15 56 57 57 54 52 71 99 97 96 99 75 78 82 64 52 45 29 13 8 18 22
33 34 34 37 37 38 38 38 40 46 51 68 89 91 82 69 64 75 43 32 22 16 20 36 28 63 64 62 58 78 94 92 92 69 67 84 93 73 42 55 53 18 13 6 5
33 33 34 35 36 37 38 40 40 44 42 45 64 78 92 87 83 79 74 61 60 54 28 47 56 64 72 68 60 54 91 94 91 65 76 87 92 82 72 74 78 34 10 6 4
34 31 35 34 34 34 38 43 41 42 44 46 52 58 62 71 83 85 86 80 78 81 80 50 67 79 90 91 81 84 40 73 82 85 94 94 96 98 95 77 67 38 26 10 8
35 32 33 30 31 30 36 41 45 48 49 47 42 47 53 63 68 89 96 96 82 91 92 78 53 66 70 91 95 87 50 78 82 78 76 81 78 84 82 67 50 55 26 15 13
35 31 29 27 22 17 14 22 42 48 50 54 51 50 50 52 54 68 92 96 87 98 78 79 65 43 64 64 84 97 72 94 87 72 82 94 85 81 82 55 65 37 22 17 16
14 13 12 12 13 11 7 7 10 23 29 53 64 64 60 53 49 59 69 82 92 95 96 89 75 63 52 72 77 90 88 92 81 81 91 90 81 71 87 82 71 43 26 24 22
14 12 12 11 11 10 10 9 7 9 16 31 33 59 68 64 59 52 50 68 85 95 96 93 77 65 58 75 74 75 79 84 92 70 84 94 92 93 78 83 64 30 18 15 18
14 12 10 11 10 9 10 10 10 10 9 20 32 32 50 67 67 61 60 54 63 88 89 93 90 71 67 69 97 88 86 83 75 84 96 94 81 68 72 61 48 28 25 14 15
14 12 10 11 10 11 12 11 11 10 12 13 14 17 42 56 56 59 56 50 57 58 91 81 71 72 66 61 95 70 77 90 89 89 91 88 93 89 66 52 34 12 20 21 16

GFSSW_500_rhum_162.txt.gz
RH
3 3 3 3 2 2 2 2 2 2 2 3 4 5 5 5 5 4 4 4 4 4 3 3 3 7 9 24 53 70 97 81 84 97 90 69 29 13 24 29 31 42 33 29 29
3 3 3 3 3 3 3 3 3 3 3 3 3 4 6 7 7 6 5 5 4 4 4 4 3 12 16 17 80 93 96 82 79 96 96 85 44 21 36 33 43 41 41 40 39
5 4 4 4 4 4 4 4 4 4 4 4 4 4 5 8 8 8 7 6 5 4 4 4 4 16 26 25 62 98 92 80 69 99 99 87 38 26 31 26 31 45 42 42 47
6 6 6 6 5 5 5 5 4 4 4 4 4 5 6 7 6 7 8 8 7 6 4 4 5 13 48 67 81 88 86 80 70 96 99 96 40 24 29 33 37 48 45 50 53
7 7 7 7 6 6 6 7 7 8 7 6 5 6 6 7 7 7 7 7 8 8 5 5 5 26 57 78 82 90 95 80 91 90 97 90 76 50 28 34 43 58 66 70 74
6 6 6 7 7 7 8 9 10 10 10 7 6 8 9 9 8 8 7 7 8 8 7 5 4 13 62 39 63 73 91 87 96 97 96 99 93 79 24 29 41 56 66 65 54
6 6 6 6 7 7 8 10 10 10 11 7 8 9 8 7 7 7 7 8 7 8 8 6 5 8 15 52 81 74 74 70 89 97 97 96 81 68 32 25 38 43 59 57 68
8 10 8 9 8 8 10 10 10 12 11 8 9 9 8 7 6 6 7 8 8 8 9 7 6 10 9 39 62 58 62 51 87 88 98 87 96 86 58 35 34 43 51 48 71
23 23 24 24 20 12 12 13 12 13 12 10 8 9 8 7 7 6 6 7 7 8 9 8 8 9 44 68 83 87 71 72 51 81 94 94 92 86 88 35 47 37 58 60 59
25 26 26 26 24 22 18 18 19 15 14 13 10 9 10 9 9 7 5 6 7 8 10 8 10 21 68 71 79 78 65 66 62 58 85 90 78 86 89 84 41 84 93 60 84
25 29 28 26 26 27 28 28 27 26 19 15 13 11 10 8 10 10 8 6 7 8 9 10 11 15 25 59 70 86 76 67 50 53 57 89 93 83 91 75 64 32 70 55 78
30 30 32 30 27 26 27 28 29 32 31 24 16 14 13 10 9 11 10 5 7 9 10 10 13 13 22 73 75 86 100 88 63 60 81 68 82 86 70 25 33 50 57 43 84
29 30 31 30 29 31 30 27 28 32 32 27 23 17 15 12 8 10 10 7 6 8 11 18 18 16 37 58 74 84 92 94 90 58 84 66 83 82 64 57 73 39 49 70 41
25 31 27 26 29 29 32 28 26 33 29 26 21 20 20 15 10 10 12 10 6 7 10 11 24 46 82 72 59 85 85 73 69 49 76 99 95 87 64 77 67 50 57 62 63
26 31 28 26 26 27 32 33 29 32 32 40 39 33 26 19 13 12 11 12 9 8 7 17 13 15 29 76 63 85 84 79 37 60 64 96 98 82 86 48 60 49 48 64 67
22 23 23 24 26 28 31 32 31 31 34 39 40 36 33 30 26 16 10 13 12 11 8 9 14 15 34 68 48 92 80 93 64 77 54 69 80 88 52 66 56 55 59 48 38
24 22 22 24 26 28 32 34 36 35 30 31 27 32 48 53 38 27 12 13 14 13 11 11 20 42 56 41 32 86 92 98 89 81 92 86 69 79 68 32 34 24 20 18 47
28 27 27 27 28 31 34 36 37 40 34 32 31 30 46 62 57 40 16 16 24 26 13 21 19 30 48 60 58 55 74 89 96 88 82 97 53 68 57 54 58 31 10 11 33
29 31 29 30 30 33 37 40 39 40 42 41 42 42 55 62 73 61 42 44 55 72 64 31 45 55 65 55 63 69 69 82 85 95 98 74 57 49 74 52 60 64 19 8 6
32 34 32 32 32 34 37 40 44 48 50 46 51 47 49 64 62 80 77 62 69 76 75 71 39 60 70 71 61 66 70 76 85 97 91 81 84 63 72 40 50 60 38 11 9
31 35 34 33 32 32 32 34 39 47 50 47 53 51 54 78 78 65 59 69 79 83 80 81 63 70 69 70 82 78 65 86 82 90 95 97 74 76 80 62 56 55 39 20 21
33 33 30 31 31 30 28 25 27 43 45 44 44 49 53 63 67 78 67 71 84 87 92 85 88 69 72 78 94 98 98 95 75 84 96 96 76 74 65 59 45 55 55 19 14
24 18 14 13 13 12 12 11 8 8 28 42 48 47 47 51 55 60 73 74 84 86 93 87 87 82 65 75 94 85 92 89 77 79 78 75 90 76 76 60 72 69 53 20 16
14 14 12 11 10 10 10 10 10 8 11 13 23 43 51 53 55 54 59 68 84 82 88 85 81 83 74 59 63 80 83 95 87 85 89 81 79 75 80 85 70 72 83 38 22
15 15 14 12 10 9 8 8 8 9 9 9 10 9 12 21 42 61 60 55 73 91 96 92 82 80 86 72 60 66 72 82 87 66 84 86 87 65 67 78 69 76 64 34 21
16 17 17 16 14 11 9 9 9 11 12 11 11 12 13 13 16 36 49 60 55 80 95 96 92 79 74 79 68 72 53 73 72 76 74 76 90 82 84 82 68 70 61 60 21
15 18 18 15 13 11 10 10 13 14 12 11 10 12 22 20 19 24 30 51 59 57 92 97 97 91 76 69 69 77 83 54 72 91 80 78 82 84 68 77 52 64 62 70 39

GFSSW_500_rhum_165.txt.gz
RH
3 3 3 3 3 3 3 3 3 2 3 4 5 6 6 6 5 4 4 4 4 4 4 4 3 3 12 23 32 65 86 90 81 96 89 76 22 20 25 30 38 39 32 23 26
4 4 3 3 3 3 3 4 4 3 3 3 4 6 7 7 7 7 6 5 5 4 4 3 3 6 18 11 26 62 85 82 73 97 96 93 47 36 28 38 35 42 45 36 31
6 5 5 5 4 4 4 4 4 4 4 4 5 5 6 8 8 8 8 8 7 5 4 3 3 6 24 55 70 85 90 93 60 66 98 89 98 42 27 29 34 49 44 42 44
6 6 6 6 6 6 6 5 6 6 6 5 6 6 7 7 6 7 9 8 9 7 6 4 4 20 49 87 81 74 79 88 69 66 73 78 93 37 31 33 34 42 50 49 49
6 6 6 6 7 7 7 8 9 10 10 8 7 8 7 7 6 7 8 8 8 8 8 6 6 35 61 67 55 53 71 72 75 81 82 94 87 58 30 35 43 62 68 75 65
6 6 6 6 6 7 8 9 11 10 11 8 7 9 9 8 8 8 8 7 7 7 7 6 7 17 49 33 59 61 61 68 77 98 95 90 91 75 34 36 50 57 50 51 61
6 10 9 7 7 7 8 10 11 11 10 9 8 9 8 8 7 7 8 8 8 7 7 8 8 19 28 22 73 64 62 43 76 97 97 98 96 49 32 39 42 47 52 73 69
25 21 19 17 14 11 11 12 10 12 12 11 9 9 8 7 7 6 7 8 8 8 7 9 7 26 39 67 73 82 68 65 52 83 96 97 94 84 48 40 42 48 56 75 62
25 26 26 24 22 19 15 16 14 13 13 12 10 9 9 8 8 7 6 6 8 8 8 8 8 36 58 67 76 58 65 55 54 54 94 91 94 84 70 30 34 47 55 55 58
25 27 26 26 26 25 24 24 24 21 16 14 12 10 11 10 10 10 7 6 6 7 9 9 14 44 56 61 60 49 78 64 47 57 86 93 91 93 84 39 35 44 49 78 66
29 31 32 29 26 26 27 28 30 29 28 21 15 14 12 11 8 11 10 6 6 7 10 9 27 39 50 59 60 62 79 73 63 78 68 76 77 72 79 76 58 28 44 63 70
26 30 32 30 29 27 25 26 32 34 33 31 26 16 14 14 10 12 12 8 6 6 8 9 16 42 44 53 64 84 96 85 62 68 47 56 75 84 59 30 40 59 64 54 74
23 28 31 27 26 26 27 32 31 32 33 30 28 22 16 16 11 10 10 10 6 6 8 10 13 25 27 36 66 88 84 82 79 81 69 52 73 55 69 64 65 44 49 76 63
22 26 29 25 23 23 26 35 32 32 32 28 29 27 22 21 15 11 10 12 7 6 7 7 11 14 14 32 51 86 83 74 68 71 69 70 78 82 65 84 80 68 61 59 64
21 25 27 26 22 23 26 31 36 35 36 41 41 38 34 26 17 15 13 12 9 8 8 13 10 8 11 29 40 54 88 85 67 82 72 79 86 81 62 66 64 63 56 57 76
22 22 22 20 19 21 27 30 31 34 37 38 42 43 36 30 29 22 17 12 13 11 9 13 14 16 22 20 27 57 63 67 69 82 76 60 84 63 58 73 72 59 53 38 36
24 22 21 21 22 27 28 32 33 33 33 36 37 40 37 44 42 33 22 15 13 14 12 13 24 44 22 23 38 33 38 44 51 70 85 75 89 78 79 57 37 23 29 29 29
26 23 23 26 28 30 32 33 35 33 31 34 35 40 44 39 46 51 58 39 22 21 24 18 31 42 47 47 41 63 62 74 67 65 75 78 69 66 74 64 73 57 20 8 32
26 26 27 28 30 31 33 37 37 37 38 36 37 40 45 46 46 47 54 64 60 65 54 60 35 44 38 60 64 71 73 70 43 47 71 58 54 56 77 76 69 71 39 8 6
27 26 28 32 33 33 35 40 42 42 36 34 34 36 39 45 49 47 48 53 58 70 82 79 61 56 56 54 55 57 78 89 81 70 65 67 49 53 65 82 90 74 48 24 8
30 31 31 32 33 33 33 33 34 34 33 37 42 44 43 49 49 46 46 57 57 71 72 77 78 67 66 67 64 62 63 66 98 98 75 69 59 63 67 86 75 66 43 34 17
36 32 26 24 19 18 20 21 26 25 25 41 45 43 49 52 58 62 62 67 74 66 64 68 79 67 72 72 66 71 88 88 96 81 83 80 62 54 43 57 63 70 60 42 17
20 16 16 14 12 11 11 11 11 11 9 9 16 14 36 53 61 67 72 87 88 83 84 75 67 64 68 74 77 74 75 72 80 90 72 77 60 69 49 46 54 59 54 34 18
21 17 14 13 12 11 10 9 9 9 9 8 9 9 11 21 49 63 65 72 90 93 92 93 88 76 65 65 75 78 85 86 78 88 67 75 68 76 70 40 44 54 59 39 20
28 19 12 11 13 15 14 12 11 11 10 10 10 11 11 12 19 23 46 61 64 87 92 95 95 93 87 77 73 74 71 80 81 76 70 66 72 72 70 55 50 57 75 49 25
19 20 19 18 18 16 14 13 12 12 13 12 13 13 13 13 12 17 20 30 64 65 78 93 98 99 97 94 92 70 74 65 65 63 50 70 76 68 75 63 37 69 83 75 51
32 25 21 19 17 16 14 13 12 12 16 16 14 13 13 13 13 12 11 20 34 63 67 81 94 98 97 98 94 85 72 68 61 60 64 70 68 90 82 65 40 65 70 80 79

GFSSW_500_rhum_168.txt.gz
RH
4 3 3 3 3 3 3 3 3 3 3 4 5 6 5 5 5 5 5 4 4 4 3 3 3 4 11 12 21 31 58 82 76 77 77 75 22 18 28 24 38 36 32 24 23
5 5 4 4 4 4 4 4 4 4 4 4 4 5 6 6 6 7 6 6 6 5 4 4 3 11 19 22 11 16 42 74 74 54 79 86 73 31 35 26 28 37 41 34 29
6 6 6 6 5 5 6 6 5 5 5 5 5 5 5 5 7 7 8 8 7 6 6 4 4 12 28 47 74 65 59 66 82 63 46 91 84 38 34 28 37 39 41 41 39
6 6 6 5 6 6 6 6 6 7 8 7 6 6 6 6 6 7 8 8 8 7 7 6 5 13 24 68 49 53 60 68 62 40 53 92 88 37 33 33 36 38 49 52 48
6 6 6 6 6 6 6 7 9 10 10 10 7 7 7 6 7 7 7 7 7 7 8 7 5 6 10 17 45 58 53 65 73 61 70 87 92 66 36 38 52 49 63 70 59
6 8 9 8 6 6 7 8 10 11 10 11 7 8 8 8 8 8 8 7 7 7 8 8 6 6 9 32 57 58 52 41 50 69 83 82 91 82 36 41 54 46 48 48 62
21 23 16 11 9 8 9 9 10 11 11 11 8 9 9 8 7 7 7 7 7 8 8 8 7 8 12 33 69 75 68 58 59 81 86 89 97 97 37 35 44 51 42 43 52
23 27 25 23 20 14 12 12 11 11 13 12 9 10 8 8 7 7 7 7 7 8 9 9 8 7 46 50 64 57 54 55 54 59 84 96 97 88 54 30 39 44 38 60 48
20 26 25 25 25 23 18 17 18 15 14 13 12 9 10 9 9 9 8 6 6 8 9 9 9 32 72 79 71 52 50 51 51 76 91 91 91 92 48 37 44 46 48 47 43
21 31 28 26 26 26 27 28 26 27 25 19 15 13 12 10 9 10 10 8 6 7 9 9 11 30 85 74 58 60 57 59 88 94 91 95 98 98 86 48 45 51 52 60 54
20 31 30 29 28 28 27 30 31 31 33 29 26 18 14 12 12 9 11 10 7 7 8 8 14 50 92 73 68 74 74 62 81 91 80 74 85 95 94 88 64 50 65 65 67
19 27 30 30 28 28 30 34 30 32 34 31 29 26 20 16 14 10 11 11 7 7 7 9 16 51 80 56 62 79 76 75 85 88 92 94 94 90 96 75 69 46 69 66 65
14 24 28 27 25 26 28 33 32 32 35 29 27 26 21 17 16 12 10 10 8 7 8 9 12 33 52 55 61 82 88 84 70 79 91 96 98 82 55 52 37 60 63 60 73
14 23 27 26 25 24 27 29 34 32 32 30 32 33 30 24 21 14 12 12 11 6 7 7 8 13 12 41 57 80 74 71 55 61 77 90 89 74 90 77 65 51 50 56 66
21 22 25 26 25 22 25 30 35 37 35 33 34 36 37 35 25 18 15 13 11 8 8 12 11 11 35 41 43 55 58 52 39 56 83 78 79 74 71 83 59 52 49 56 63
26 24 22 22 21 23 26 32 35 36 34 34 34 37 43 38 31 29 26 20 13 12 11 10 10 17 24 33 39 40 39 34 30 67 81 66 80 67 60 74 74 68 55 39 63
28 26 23 22 23 26 28 32 34 34 34 36 40 43 43 44 44 39 31 22 17 14 12 11 11 18 40 53 42 28 39 40 32 68 78 61 55 82 63 55 54 37 25 47 47
28 27 26 23 23 27 32 35 36 36 33 36 40 44 46 47 53 47 43 43 33 29 21 19 16 21 44 39 45 33 29 49 39 31 66 76 80 74 68 54 45 50 32 12 12
28 26 27 26 26 30 33 38 36 34 34 33 39 42 43 45 53 58 53 53 49 39 36 29 31 34 41 57 45 42 36 58 46 48 27 39 67 61 81 63 57 53 61 25 7
29 29 29 30 32 34 34 36 36 33 32 34 39 43 47 48 48 54 60 63 59 49 43 49 39 41 60 58 53 49 59 57 63 37 35 41 79 63 58 64 72 68 64 53 25
35 34 33 33 33 33 34 35 35 33 33 36 36 37 51 56 54 56 56 68 68 65 65 52 43 42 41 56 64 68 61 63 63 59 51 50 46 87 69 86 84 76 65 52 32
34 30 26 23 18 15 14 14 18 19 19 22 21 21 27 39 49 57 58 64 67 70 70 74 68 56 55 56 56 73 71 76 90 89 72 53 50 75 83 72 59 63 60 61 36
26 19 16 15 14 12 11 11 10 10 10 10 10 12 16 23 36 51 62 72 76 84 86 83 78 71 68 69 57 56 70 73 80 95 86 44 44 45 70 78 60 58 49 59 28
36 30 22 16 15 15 15 16 15 14 12 11 11 10 11 12 14 18 39 70 83 98 97 96 93 82 74 70 79 73 65 64 73 71 80 76 68 70 45 77 69 58 50 44 26
19 20 19 18 19 19 19 18 16 15 14 13 12 11 12 12 12 13 18 28 56 80 84 86 96 97 89 79 74 79 88 74 68 68 76 75 55 51 62 50 57 66 54 50 46
33 32 30 27 23 20 19 17 15 15 14 13 14 15 15 15 14 13 14 18 24 50 73 83 76 96 96 100 87 81 75 87 92 79 69 66 53 47 61 75 74 56 59 60 60
37 36 34 29 25 19 16 14 12 12 14 14 15 16 17 16 16 14 14 13 14 16 35 56 81 79 82 96 97 90 98 75 82 87 91 78 66 58 50 52 51 76 87 62 67